Lumberton, NC

9:17 AM EST on February 14, 2016 (GMT -0500)
Lumberton Municipal

Weather History for KLBT - September, 2013

Change the Weather History Date:

Sunday, September 1, 2013

  Actual Average Record
Temperature  
Mean Temperature 82 °F 77 °F  
Max Temperature 91 °F 87 °F 96 °F (2010)
Min Temperature 73 °F 67 °F 57 °F (1999)
Degree Days  
Heating Degree Days 0 0  
Month to date heating degree days 0 0  
Since 1 July heating degree days 0 0  
Cooling Degree Days 17 12  
Month to date cooling degree days 17 12  
Year to date cooling degree days 1528 1584  
Growing Degree Days 32 (Base 50)    
Moisture  
Dew Point 73 °F    
Average Humidity 78    
Maximum Humidity 100    
Minimum Humidity 56    
Precipitation  
Precipitation 0.46 in 0.18 in 0.46 in (2013)
Month to date precipitation 0.46 0.18  
Year to date precipitation 36.44 30.57  
Sea Level Pressure  
Sea Level Pressure 29.89 in    
Wind  
Wind Speed 6 mph (SW)    
Max Wind Speed 21 mph    
Max Gust Speed 28 mph    
Visibility 6 miles    
Events Rain , Thunderstorm    
T = Trace of Precipitation, MM = Missing Value Source: NWS Daily Summary

Daily Weather History Graph

Daily Weather History Graph

Search for Another Location

Airport or City:

Trip Planner

Search our weather history database for the weather conditions in past years. The results will help you decide how hot, cold, wet, or windy it might be!

Date:

Astronomy

Sep. 01, 2013 Rise Set
Actual Time 6:49 AM EDT 7:42 PM EDT
Civil Twilight 6:23 AM EDT 8:07 PM EDT
Nautical Twilight 5:53 AM EDT 8:38 PM EDT
Astronomical Twilight 5:21 AM EDT 9:09 PM EDT
Moon 3:15 AM EDT (9/1) 5:13 PM EDT (9/1)
Length of Visible Light 13h 44m
Length of Day
12h 52m
Waning Crescent, 14% of the Moon is Illuminated
Sep 1
Waning Crescent
Sep 5
New
Sep 12
First Quarter
Sep 19
Full
Sep 26
Last Quarter

Hourly Weather History & Observations

Time (EDT) Temp. Heat Index Dew Point Humidity Pressure Visibility Wind Dir Wind Speed Gust Speed Precip Events Conditions
12:54 AM 75.0 °F - 73.0 °F 94% 29.91 in 10.0 mi SSW 3.5 mph - N/A   Clear
1:54 AM 75.0 °F - 73.0 °F 94% 29.91 in 8.0 mi Calm Calm - N/A   Clear
2:54 AM 73.9 °F - 73.0 °F 97% 29.90 in 7.0 mi Calm Calm - N/A   Clear
3:54 AM 73.9 °F - 73.0 °F 97% 29.89 in 6.0 mi South 3.5 mph - N/A   Clear
4:10 AM 75.2 °F - 73.4 °F 94% 29.89 in 6.0 mi SSW 3.5 mph - N/A   Partly Cloudy
4:54 AM 75.0 °F - 73.9 °F 96% 29.88 in 5.0 mi SW 4.6 mph - N/A   Mostly Cloudy
5:54 AM 73.9 °F - 73.0 °F 97% 29.89 in 6.0 mi South 3.5 mph - N/A   Partly Cloudy
6:54 AM 73.9 °F - 73.0 °F 97% 29.91 in 4.0 mi Calm Calm - N/A   Clear
7:15 AM 73.4 °F - 73.4 °F 100% 29.92 in 2.5 mi Calm Calm - N/A   Mostly Cloudy
7:34 AM 75.2 °F - 73.4 °F 94% 29.92 in 3.0 mi SSW 4.6 mph - N/A   Overcast
7:54 AM 75.9 °F - 73.9 °F 94% 29.92 in 3.0 mi SW 5.8 mph - N/A   Overcast
8:42 AM 78.8 °F - 75.2 °F 89% 29.92 in 3.0 mi SW 5.8 mph - N/A   Mostly Cloudy
8:54 AM 78.1 °F - 75.0 °F 90% 29.93 in 4.0 mi WSW 8.1 mph - N/A   Overcast
9:35 AM 80.6 °F 86.2 °F 75.2 °F 84% 29.94 in 5.0 mi SW 6.9 mph - N/A   Haze
9:54 AM 81.0 °F 87.3 °F 75.9 °F 85% 29.94 in 5.0 mi SW 4.6 mph - N/A   Haze
10:22 AM 82.4 °F 89.5 °F 75.2 °F 79% 29.93 in 5.0 mi WSW 9.2 mph - N/A   Haze
10:54 AM 84.9 °F 94.1 °F 75.9 °F 74% 29.93 in 6.0 mi WSW 8.1 mph - N/A   Haze
11:54 AM 87.1 °F 97.3 °F 75.9 °F 69% 29.92 in 7.0 mi SSW 8.1 mph - N/A   Scattered Clouds
12:54 PM 88.0 °F 97.5 °F 75.0 °F 65% 29.90 in 7.0 mi Variable 6.9 mph - N/A   Partly Cloudy
1:54 PM 90.0 °F 99.0 °F 73.9 °F 59% 29.88 in 8.0 mi WSW 10.4 mph - N/A   Partly Cloudy
2:54 PM 89.1 °F 97.0 °F 73.0 °F 59% 29.86 in 8.0 mi SSW 10.4 mph - N/A   Mostly Cloudy
3:54 PM 90.0 °F 99.0 °F 73.9 °F 59% 29.83 in 9.0 mi SW 9.2 mph - N/A   Scattered Clouds
4:54 PM 90.0 °F 97.9 °F 73.0 °F 57% 29.81 in 9.0 mi South 10.4 mph - N/A   Scattered Clouds
5:54 PM 89.1 °F 96.0 °F 72.0 °F 57% 29.81 in 10.0 mi SSW 9.2 mph - N/A   Scattered Clouds
6:54 PM 87.1 °F 94.5 °F 73.0 °F 63% 29.82 in 9.0 mi SSW 4.6 mph - N/A   Partly Cloudy
7:54 PM 82.9 °F 88.8 °F 73.0 °F 72% 29.84 in 9.0 mi SSW 4.6 mph - N/A   Clear
8:54 PM 82.0 °F 87.4 °F 73.0 °F 74% 29.85 in 10.0 mi South 3.5 mph - N/A   Scattered Clouds
9:47 PM 80.6 °F 85.4 °F 73.4 °F 79% 29.89 in 9.0 mi NW 11.5 mph - N/A Thunderstorm Mostly Cloudy
9:54 PM 80.1 °F 82.9 °F 69.1 °F 69% 29.90 in 10.0 mi WNW 17.3 mph 24.2 mph N/A Thunderstorm Mostly Cloudy
10:07 PM 78.8 °F - 68.0 °F 69% 29.89 in 9.0 mi NW 16.1 mph 27.6 mph N/A Thunderstorm Overcast
10:16 PM 73.4 °F - 71.6 °F 94% 29.91 in 1.8 mi NW 10.4 mph 21.9 mph 0.17 in Rain , Thunderstorm Heavy Rain
10:21 PM 73.4 °F - 71.6 °F 94% 29.90 in 1.0 mi NNW 8.1 mph - 0.27 in Rain , Thunderstorm Heavy Rain
10:29 PM 73.4 °F - 71.6 °F 94% 29.90 in 1.0 mi Calm Calm - 0.42 in Rain , Thunderstorm Heavy Thunderstorms and Rain
10:38 PM 73.4 °F - 71.6 °F 94% 29.88 in 1.8 mi Calm Calm - 0.45 in Rain , Thunderstorm Light Thunderstorms and Rain
10:40 PM 73.4 °F - 71.6 °F 94% 29.88 in 3.0 mi SE 3.5 mph - 0.45 in Rain , Thunderstorm Light Thunderstorms and Rain
10:54 PM 73.0 °F - 72.0 °F 96% 29.89 in 7.0 mi South 5.8 mph - 0.45 in Rain , Thunderstorm Light Rain
11:19 PM 73.4 °F - 71.6 °F 94% 29.89 in 8.0 mi South 4.6 mph - 0.00 in Rain Light Rain
11:54 PM 73.9 °F - 72.0 °F 93% 29.89 in 8.0 mi Calm Calm - 0.00 in   Clear